[[{"header":{"parameterUnit":"m.s-1","parameterCategory":1,"la1":30.2991,"la2":30.254,"lo1":-89.0895,"lo2":-89.0444,"dy":0.0017,"dx":0.0017,"nx":28,"ny":28,"refTime":"2023-10-27T03:00:00:Z","depth":0,"parameterNumber":2,"parameterNumberName":"U-component_of_WINDS"},"data":[0,0,0,0,0,0,0,0,0,0,0,0,0,0,0,0,0,0,0,0,0,0,0,0,0,0,0,0,0,0,0,0,0,0,0,0,0,0,0,0,0,0,0,0,0,0,0,0,0,0,0,0,0,0,0,0,0,0,-3.331,-3.3311,0,-3.3335,-3.3336,-3.3336,-3.3294,-3.3292,-3.3291,-3.3289,-3.3321,-3.3323,-3.3325,0,0,0,0,0,0,0,0,0,0,0,0,0,-3.3233,-3.3235,-3.331,-3.3311,-3.3311,-3.3335,-3.3336,-3.3336,-3.3294,-3.3292,-3.329,-3.3289,-3.332,-3.3323,-3.3326,0,0,0,0,0,0,0,0,0,0,0,0,0,-3.3264,-3.3236,-3.331,-3.3293,-3.3291,-3.3335,-3.3336,-3.3336,-3.3294,-3.3292,-3.329,-3.3288,-3.3319,-3.3323,-3.3326,-3.339,0,0,-3.3336,-3.3337,0,0,0,0,0,0,0,0,-3.3262,-3.3267,-3.3295,-3.3294,-3.3293,-3.3309,-3.332,-3.3354,-3.3295,-3.3293,-3.3289,-3.3287,-3.3319,-3.3322,-3.3332,-3.3391,-3.3393,-3.3336,-3.3338,-3.334,-3.3341,0,0,0,0,0,0,0,-3.326,-3.3265,-3.332,-3.3296,-3.3294,-3.3286,-3.3288,-3.3326,-3.3319,-3.3293,-3.329,-3.3294,-3.3318,-3.3329,-3.3333,-3.3393,-3.3336,-3.3339,-3.3341,-3.3342,-3.351,-3.3512,0,0,0,0,0,0,-3.3259,-3.3264,-3.332,-3.3321,-3.3271,-3.3289,-3.3291,-3.3306,-3.3318,-3.3317,-3.3295,-3.3292,-3.3324,-3.3329,-3.3333,-3.3411,-3.334,-3.3343,-3.3345,-3.3508,-3.3511,-3.3513,0,0,0,0,0,0,-3.3258,-3.3264,-3.3319,-3.3292,-3.3298,-3.3293,-3.331,-3.3308,-3.3318,-3.3319,-3.3318,-3.3307,-3.3323,-3.3329,-3.3377,-3.3412,-3.3344,-3.3347,-3.3505,-3.3508,-3.3512,-3.3566,0,0,0,0,0,0,-3.3256,-3.3264,-3.3286,-3.3292,-3.3299,-3.3359,-3.3312,-3.331,-3.3324,-3.3319,-3.333,-3.333,-3.3322,-3.3372,-3.338,-3.3415,-3.335,-3.3501,-3.3506,-3.3511,-3.3561,-3.3571,-3.3579,0,0,0,0,0,-3.3253,-3.3301,-3.3288,-3.3295,-3.3327,-3.3361,-3.3365,-3.3353,-3.3326,-3.335,-3.3351,-3.333,-3.3406,-3.3377,-3.3386,-3.3422,-3.3499,-3.3505,-3.351,-3.3557,-3.3569,-3.3579,0,0,0,0,0,0,-3.3301,-3.3302,-3.3287,-3.3338,-3.335,-3.3354,-3.3383,-3.3366,-3.3387,-3.3381,-3.3367,-3.337,-3.3422,-3.3427,-3.3394,-3.3487,-3.3449,-3.3456,-3.3481,-3.3493,-3.3502,-3.35,-3.3353,0,0,0,0,0,-3.3317,-3.3343,-3.3343,-3.3388,-3.3395,-3.3388,-3.3403,-3.3392,-3.3404,-3.341,-3.3414,-3.3429,-3.3456,-3.3475,-3.35,-3.3562,-3.3565,-3.3591,-3.3601,-3.3608,-3.3615,-3.3651,-3.3664,-3.3532,-3.3531,-3.3531,0,0,-3.3352,-3.3355,-3.3372,-3.3398,-3.3406,-3.3435,-3.3393,-3.3425,-3.3447,-3.3415,-3.346,-3.3464,-3.348,-3.3536,-3.3561,-3.3542,-3.3653,-3.3615,-3.3621,-3.3624,-3.3658,-3.3671,-3.3682,-3.3535,-3.3535,-3.3534,0,0,-3.3429,-3.3434,-3.3473,-3.3482,-3.3494,-3.3489,-3.3499,-3.3506,-3.3508,-3.3552,-3.353,-3.3558,-3.3604,-3.3617,-3.363,-3.3716,-3.3698,-3.3725,-3.3774,-3.3809,-3.3819,-3.3828,-3.3861,-3.3873,-3.3732,-3.3732,-3.3732,0,-3.3471,-3.3512,-3.3496,-3.353,-3.3543,-3.3514,-3.3556,-3.3566,-3.3587,-3.3598,-3.3576,-3.3636,-3.3644,-3.3704,-3.3725,-3.3736,-3.3749,-3.3723,-3.3819,-3.3828,-3.3836,-3.3867,-3.3879,-3.3735,-3.3735,-3.3734,-3.3734,0,-3.3564,-3.3593,-3.3624,-3.3643,-3.366,-3.3698,-3.369,-3.3709,-3.3698,-3.3697,-3.3745,-3.3755,-3.3782,-3.3796,-3.3785,-3.3855,-3.3843,-3.382,-3.3782,-3.3852,-3.3882,-3.3893,-3.374,-3.3739,-3.3738,-3.3737,0,0,-3.3671,-3.3682,-3.3694,-3.3704,-3.3716,-3.3739,-3.3778,-3.3803,-3.3821,-3.3838,-3.3871,-3.3913,-3.3892,-3.3907,-3.3898,-3.3929,-3.3999,-3.3903,-3.3903,-3.3922,-3.408,-3.4098,-3.4112,-3.3987,-3.399,-3.3991,-3.4079,0,-3.375,-3.3813,-3.3801,-3.3864,-3.3892,-3.3866,-3.39,-3.3913,-3.3914,-3.394,-3.3942,-3.3973,-3.3942,-3.3951,-3.398,-3.3984,-3.4031,-3.3978,-3.4021,-3.4023,-3.4019,-3.4126,-3.4145,-3.4227,-3.409,-3.4092,-3.4094,0,-3.3849,-3.3868,-3.3933,-3.3943,-3.3955,-3.3985,-3.4009,-3.4034,-3.4049,-3.4048,-3.4066,-3.4052,-3.4093,-3.4054,-3.4113,-3.4077,-3.4094,-3.4099,-3.4102,-3.4107,-3.4063,-3.4136,-3.4253,-3.4266,-3.4111,-3.411,-3.4108,0,-3.3924,-3.3965,-3.401,-3.4019,-3.4031,-3.4054,-3.4061,-3.4074,-3.4091,-3.4113,-3.4125,-3.4152,-3.4167,-3.419,-3.4186,-3.4157,-3.4247,-3.4206,-3.4249,-3.425,-3.4269,-3.4269,-3.4393,-3.4279,-3.4279,-3.4278,-3.4278,0,-3.4013,-3.4055,-3.4044,-3.4072,-3.4119,-3.4106,-3.4154,-3.4158,-3.417,-3.4201,-3.4181,-3.4211,-3.4202,-3.4232,-3.4229,-3.428,-3.4287,-3.4289,-3.4288,-3.4291,-3.4291,-3.4303,-3.4298,-3.4282,-3.4281,-3.428,-3.428,0,-3.4104,-3.4098,-3.4146,-3.4154,-3.4157,-3.4192,-3.42,-3.4228,-3.4227,-3.4267,-3.4275,-3.4276,-3.4311,-3.4308,-3.4348,-3.4346,-3.4409,-3.4401,-3.4403,-3.4402,-3.4446,-3.4443,-3.4583,-3.4603,-3.4474,-3.4476,-3.4477,0,-3.4162,-3.4193,-3.4204,-3.4223,-3.4231,-3.426,-3.4277,-3.4267,-3.4287,-3.4308,-3.4335,-3.4367,-3.4393,-3.445,-3.4456,-3.4487,-3.4481,-3.4528,-3.4485,-3.4489,-3.4484,-3.4483,-3.4487,-3.4537,-3.4538,-3.4539,-3.454,0,-3.4266,-3.4262,-3.4286,-3.4311,-3.4332,-3.4352,-3.4369,-3.4386,-3.4378,-3.4402,-3.4436,-3.4456,-3.4497,-3.4531,-3.4561,-3.4571,-3.4556,-3.4554,-3.4566,-3.457,-3.4571,-3.4573,-3.4428,-3.4551,-3.455,-3.4549,-3.4548,-3.4548,-3.4343,-3.4371,-3.4384,-3.4413,-3.4425,-3.4442,-3.4469,-3.4473,-3.4501,-3.4531,-3.4525,-3.4565,-3.4583,-3.4621,-3.4635,-3.4668,-3.4651,-3.4668,-3.4672,-3.4677,-3.4683,-3.4565,-3.4673,-3.4673,-3.4673,-3.4672,-3.4672,0,-3.4448,-3.4455,-3.4482,-3.4507,-3.4531,-3.4512,-3.4532,-3.4554,-3.4588,-3.4605,-3.4631,-3.4673,-3.4707,-3.4715,-3.4749,-3.4774,-3.4768,-3.4783,-3.4782,-3.4785,-3.4695,-3.4682,-3.4787,-3.4787,-3.4787,-3.4787,-3.4787,-3.4787,-3.4505,-3.4552,-3.455,-3.4604,-3.4611,-3.4648,-3.4662,-3.4679,-3.4693,-3.4739,-3.4767,-3.4771,-3.4787,-3.4821,-3.4852,-3.4855,-3.4869,-3.4887,-3.4887,-3.4803,-3.4791,-3.478,-3.4768,-3.489,-3.489,-3.4975,-3.4975,-3.4976]},{"header":{"parameterUnit":"m.s-1","parameterCategory":1,"la1":30.2991,"la2":30.254,"lo1":-89.0895,"lo2":-89.0444,"dy":0.0017,"dx":0.0017,"nx":28,"ny":28,"refTime":"2023-10-27T03:00:00:Z","depth":0,"parameterNumber":3,"parameterNumberName":"V-component_of_WINDS"},"data":[0,0,0,0,0,0,0,0,0,0,0,0,0,0,0,0,0,0,0,0,0,0,0,0,0,0,0,0,0,0,0,0,0,0,0,0,0,0,0,0,0,0,0,0,0,0,0,0,0,0,0,0,0,0,0,0,0,0,-0.0055,-0.0054,0,0.0018,0.0018,0.0019,0.0177,0.018,0.0183,0.0186,0.0256,0.0255,0.0253,0,0,0,0,0,0,0,0,0,0,0,0,0,-0.0062,-0.0063,-0.0055,-0.0054,-0.0053,0.0018,0.0019,0.002,0.0176,0.018,0.0184,0.0187,0.0256,0.0255,0.0253,0,0,0,0,0,0,0,0,0,0,0,0,0,-0.0032,-0.0063,-0.0055,0.0033,0.0042,0.0017,0.0019,0.002,0.0175,0.018,0.0185,0.0189,0.0256,0.0255,0.0253,0.0147,0,0,0.0248,0.0247,0,0,0,0,0,0,0,0,-0.0034,-0.0032,0.0019,0.0027,0.0037,0.0093,0.0042,0.0062,0.0174,0.0124,0.0186,0.0192,0.0197,0.0201,0.0204,0.015,0.0153,0.0248,0.0247,0.0246,0.0246,0,0,0,0,0,0,0,-0.0036,-0.0034,-0.0026,0.002,0.0031,0.0068,0.0078,0.0046,0.0133,0.0129,0.0141,0.0147,0.0203,0.0205,0.0207,0.0154,0.0248,0.0246,0.0245,0.0245,0.0016,0.0011,0,0,0,0,0,0,-0.005,-0.0037,-0.0029,-0.0024,0.0013,0.0065,0.0075,0.007,0.0134,0.0148,0.0143,0.0155,0.0206,0.0208,0.021,0.0089,0.0246,0.0245,0.0244,0.0021,0.0015,0.001,0,0,0,0,0,0,-0.0051,-0.0051,-0.0032,-0.0027,-0.0022,0.006,0.0052,0.0069,0.0071,0.0145,0.016,0.013,0.0209,0.0212,0.0161,0.0094,0.0244,0.0242,0.0027,0.0019,0.0012,-0.0154,0,0,0,0,0,0,-0.0052,-0.0052,-0.0091,-0.0029,-0.0023,-0.0081,0.0048,0.0067,0.0068,0.0084,0.0136,0.0149,0.0213,0.0163,0.016,0.0094,0.0241,0.0034,0.0024,0.0015,-0.0142,-0.0166,-0.0187,0,0,0,0,0,-0.0053,-0.0142,-0.0094,-0.0094,-0.0069,-0.0085,-0.0081,-0.0004,0.0062,0.0023,0.0071,0.0147,0.0102,0.0157,0.0154,0.0087,0.0038,0.0026,0.0015,-0.0132,-0.0161,-0.0186,0,0,0,0,0,0,-0.0216,-0.0132,-0.0078,-0.015,-0.0125,-0.0058,-0.0105,-0.0038,-0.0033,-0.0019,0.0076,0.0086,0.0022,0.005,0.0109,-0.0013,0.0082,0.007,-0.0029,-0.0056,-0.0078,-0.0084,0.0239,0,0,0,0,0,-0.026,-0.0278,-0.0204,-0.0275,-0.0265,-0.0188,-0.0191,-0.0134,-0.0105,-0.0095,-0.0051,-0.0028,-0.0036,-0.0045,-0.0049,-0.0137,-0.0124,-0.0184,-0.0207,-0.0226,-0.0238,-0.0283,-0.0309,-0.0028,-0.0028,-0.0027,0,0,-0.0352,-0.0308,-0.0326,-0.0306,-0.0281,-0.0303,-0.018,-0.0209,-0.0225,-0.0099,-0.0144,-0.0112,-0.0079,-0.0149,-0.0178,-0.0128,-0.0312,-0.024,-0.0256,-0.0258,-0.0297,-0.0324,-0.0348,-0.0035,-0.0034,-0.0033,0,0,-0.0531,-0.0499,-0.0554,-0.053,-0.0492,-0.044,-0.0454,-0.0396,-0.0369,-0.0412,-0.0319,-0.0337,-0.0354,-0.0335,-0.0327,-0.0498,-0.0428,-0.0502,-0.062,-0.0665,-0.0687,-0.0706,-0.0768,-0.0791,-0.0514,-0.0515,-0.0515,0,-0.065,-0.0678,-0.0591,-0.0626,-0.062,-0.0506,-0.0562,-0.0543,-0.051,-0.051,-0.0454,-0.0472,-0.0443,-0.0507,-0.0548,-0.0546,-0.0559,-0.0508,-0.0691,-0.0709,-0.0726,-0.0784,-0.0807,-0.0524,-0.0523,-0.0522,-0.0521,0,-0.0827,-0.0848,-0.0897,-0.0866,-0.0866,-0.0911,-0.0832,-0.0843,-0.0785,-0.0739,-0.0785,-0.0745,-0.0739,-0.0749,-0.0694,-0.0806,-0.0776,-0.0707,-0.061,-0.0763,-0.0816,-0.0838,-0.0537,-0.0534,-0.0531,-0.0529,0,0,-0.1108,-0.1027,-0.1046,-0.1031,-0.098,-0.0995,-0.1035,-0.1028,-0.1039,-0.102,-0.1052,-0.1068,-0.1004,-0.0996,-0.0937,-0.0976,-0.1115,-0.0902,-0.0899,-0.0944,-0.1236,-0.129,-0.1317,-0.1067,-0.1071,-0.1074,-0.1239,0,-0.1275,-0.1338,-0.1261,-0.1341,-0.136,-0.1251,-0.1286,-0.126,-0.1218,-0.1229,-0.1182,-0.1196,-0.1109,-0.1104,-0.1137,-0.1091,-0.1173,-0.1078,-0.1098,-0.1099,-0.111,-0.1344,-0.1401,-0.1559,-0.1259,-0.1263,-0.1265,0,-0.148,-0.1468,-0.155,-0.1493,-0.1498,-0.1531,-0.1518,-0.1529,-0.1497,-0.1464,-0.1455,-0.1384,-0.142,-0.1325,-0.1374,-0.1312,-0.1315,-0.1293,-0.1298,-0.1298,-0.1193,-0.1352,-0.1607,-0.1632,-0.1297,-0.1294,-0.1292,0,-0.1677,-0.1682,-0.1731,-0.1721,-0.1657,-0.1683,-0.1657,-0.162,-0.1621,-0.1609,-0.1609,-0.1603,-0.1601,-0.1598,-0.1528,-0.1464,-0.1587,-0.1485,-0.1562,-0.1564,-0.1593,-0.1593,-0.1855,-0.1594,-0.1594,-0.1593,-0.1593,0,-0.1873,-0.1928,-0.1819,-0.185,-0.1908,-0.1819,-0.188,-0.1843,-0.1811,-0.1834,-0.1739,-0.1763,-0.1668,-0.1682,-0.1627,-0.1677,-0.1676,-0.1652,-0.1637,-0.1661,-0.1664,-0.1663,-0.1651,-0.16,-0.1598,-0.1597,-0.1596,0,-0.2104,-0.2034,-0.208,-0.2015,-0.2,-0.2046,-0.199,-0.2017,-0.1968,-0.1998,-0.2,-0.1924,-0.1935,-0.1864,-0.1863,-0.1826,-0.1903,-0.1869,-0.1914,-0.1904,-0.1985,-0.1979,-0.2256,-0.2288,-0.2007,-0.201,-0.2012,0,-0.2235,-0.2274,-0.2212,-0.222,-0.2198,-0.2212,-0.2211,-0.2126,-0.2129,-0.2095,-0.2126,-0.2129,-0.2127,-0.2151,-0.2097,-0.2095,-0.2061,-0.2158,-0.206,-0.2083,-0.2064,-0.2063,-0.2067,-0.2179,-0.2183,-0.2185,-0.2188,0,-0.2474,-0.2436,-0.2438,-0.2429,-0.243,-0.2419,-0.2401,-0.2413,-0.232,-0.2329,-0.2338,-0.2337,-0.2335,-0.234,-0.2327,-0.2302,-0.2231,-0.2219,-0.2236,-0.2262,-0.2287,-0.2276,-0.1971,-0.2213,-0.2211,-0.2209,-0.2207,-0.2206,-0.2658,-0.2688,-0.2649,-0.2655,-0.2632,-0.2618,-0.2639,-0.2593,-0.2599,-0.2589,-0.2538,-0.2558,-0.2524,-0.25,-0.2482,-0.2497,-0.245,-0.2476,-0.2483,-0.2491,-0.2506,-0.2284,-0.2494,-0.2493,-0.2492,-0.2492,-0.2491,0,-0.2893,-0.2862,-0.2868,-0.2846,-0.2851,-0.278,-0.2757,-0.2767,-0.2784,-0.2759,-0.2758,-0.277,-0.2774,-0.272,-0.2717,-0.2739,-0.2706,-0.2741,-0.274,-0.2735,-0.2547,-0.2532,-0.2768,-0.2768,-0.2768,-0.2768,-0.2768,-0.2768,-0.3016,-0.3063,-0.3021,-0.3056,-0.3025,-0.3042,-0.3035,-0.3022,-0.3001,-0.3017,-0.302,-0.2983,-0.2947,-0.2941,-0.2942,-0.2926,-0.293,-0.2977,-0.295,-0.2775,-0.2749,-0.2723,-0.2709,-0.2978,-0.2978,-0.3137,-0.3139,-0.314]}]]